Погода в Победине

Россия / Калининградская область     54°53′38″N   22°43′28″E
темп.,
°C
ветер,
м/с
пор.,
м/с
влажн.,
%
обл.,
%
осадки,
мм/ч
давл.,
гПа
погр.,
м
17 апреля, сб
сб1723:00+8св4128816 0.0 1018294
02:00+7св411948 0.0 1019273
05:00+7св41095100 0.0 1019265
08:00+8св3798100 3.0 1020237
11:00+12всв458184 0.2 1020683
14:00+14всв567171 0.6 10201140
17:00+14всв587446 0.9 10201186
20:00+9св39915 1.0 1021177
18 апреля, вс
вс1823:00+8св389387 0.0 1021156
02:00+7св3894100 0.0 1022161
05:00+6св389670 0.0 1021151
08:00+10св588644 0.0 1021350
11:00+14всв57675 0.0 1021927
14:00+16всв575928 0.0 10211371
17:00+16всв576222 0.0 10211060
20:00+11св49785 0.0 1022177
19 апреля, пн
пн1923:00+8всв38785 0.0 1022139
02:00+7всв36820 0.0 1023109
05:00+5всв36833 0.0 1023104
08:00+9всв477218 0.0 1023299
11:00+14в57545 0.0 10221625
14:00+12в5862100 0.0 1023731
17:00+12в466588 0.0 1022922
20:00+9в3873100 0.1 1022338
20 апреля, вт
вт2023:00+9всв3679100 0.1 1022155
02:00+8св3683100 0.1 1021178
05:00+7св3786100 0.1 1020207
08:00+9в467910 0.1 1019518
11:00+12всв466093 0.3 10181546
14:00+12всв465488 0.4 10171719
17:00+11всв345995 0.1 10161105
20:00+7св227320 0.1 101511
21 апреля, ср
ср2123:00+6ссз117964 0.0 101410
02:00+4сз22855 0.0 101316
05:00+4зсз229271 0.0 101225
08:00+7зсз237896 0.0 1011253
11:00+10з456687 0.3 1010811
14:00+11зсз5759100 0.4 10091406
17:00+12зсз56575 0.1 10091461
20:00+6з35781 0.1 101065